Location: Bartlow
(52.0833°N, 0.3167°E)
Time: 03:50:30
(UTC+00:00)

Cosmos 1553 Rocket - Pass Details

Date: 26 September 2023
Orbit: 942 x 1007 km, 82.9° (Epoch: 29 November)

Event Time Altitude Azimuth Distance (km) Brightness Sun altitude
Rises 02:26:15 0° 350° (N) 3,631 7.4 -29.5°
Reaches altitude 10° 02:28:45 10° 353° (N) 2,687 6.7 -29.2°
Maximum altitude 02:34:53 71° 78° (ENE) 1,016 4.1 -28.5°
Enters shadow 02:37:12 40° 150° (SSE) 1,390 4.6 -28.3°
